Flag for Brazil Weather past 2 weeks in Porto Velho, Rondônia, Brazil

Now
81 °F

Light rain. Scattered clouds.


Feels Like: 86 °F
Forecast: N/A
Wind: 12 mph from Northeast

Location: Porto Velho Aeroporto

Current Time: Dec 21, 2014 at 6:21:51 PM

Latest Report: Dec 21, 2014 at 5:00 PM


Visibility: 5 mi

Pressure: 29.71 "Hg

Humidity: 84%

Dew point: 75 °F

Location of Porto VelhoLocation

Historic Weather in Porto Velho — Graph

°F

Porto Velho temperature yesterday

Maximum temperature yesterday: 90 °F (at 1:00 PM)
Minimum temperature yesterday: 73 °F (at 6:00 AM)
Average temperature yesterday: 80 °F

Past Weeks' High & Low Weather Summary

 TemperatureHumidityPressure
High91 °F (Dec 18, 3:00 PM)100% (Dec 7, 4:00 PM)29.95 "Hg (Dec 7, 4:00 PM)
Low37 °F (Dec 7, 4:00 PM)19% (Dec 15, 2:00 PM)29.65 "Hg (Dec 9, 4:00 PM)
Average77 °F84%29.81 "Hg
* Reported Dec 6 5:00 PM — Dec 21 5:00 PM, Porto Velho, Weather by CustomWeather, © 2014

Note: Actual official high and low records may vary slightly from our data, if they occured in-between our weather recording intervals... More about our weather records

Advertising

Porto Velho weather history for previous 24 hours

 ConditionsComfort  
Time TempWeatherWind HumidityBarometerVisibility
5:00 PM
Dec 21
81 °FLight rain. Scattered clouds.12 mph84%29.71 "Hg5 mi
4:00 PM88 °FScattered showers. Scattered clouds.6 mph66%29.71 "HgN/A
3:00 PM88 °FScattered showers. Scattered clouds.8 mph59%29.71 "HgN/A
2:00 PM91 °FScattered clouds.8 mph59%29.77 "HgN/A
1:00 PM88 °FPartly sunny.8 mph66%29.80 "HgN/A
12:00 PM88 °FBroken clouds.10 mph66%29.83 "HgN/A
11:00 AM88 °FPartly sunny.13 mph66%29.86 "HgN/A
10:00 AM86 °FPartly sunny.9 mph75%29.86 "HgN/A
9:00 AM82 °FSunny.10 mph84%29.86 "Hg10 mi
8:00 AM79 °FSunny.5 mph89%29.86 "Hg10 mi
7:00 AM75 °FSunny.No wind100%29.86 "Hg10 mi
6:00 AM75 °FSunny.No wind100%29.80 "Hg10 mi
5:00 AM75 °FClear.No wind100%29.80 "Hg10 mi
4:00 AM75 °FClear.No wind100%29.77 "Hg10 mi
3:00 AM75 °FClear.No wind100%29.80 "Hg10 mi
2:00 AM75 °FClear.No wind100%29.80 "Hg10 mi
1:00 AM75 °FClear.No wind100%29.80 "Hg10 mi
12:00 AM75 °FPassing clouds.No wind100%29.80 "HgN/A
11:00 PM
Dec 20
77 °FPassing clouds.No wind94%29.80 "HgN/A
10:00 PM77 °FPassing clouds.No wind94%29.80 "HgN/A
9:00 PM77 °FPassing clouds.3 mph94%29.77 "HgN/A
8:00 PM77 °FRain. Passing clouds.7 mph94%29.77 "HgN/A
7:00 PM79 °FPassing clouds.No wind94%29.71 "HgN/A
6:00 PM84 °FScattered clouds.6 mph74%29.71 "HgN/A
Weather by CustomWeather, © 2014

See weather overviewHow to use our weather pages